Item Display Status Humidity-temperature Sensor

Elevation Above Sea Level: 3 m

 

Deployed Sensor

  • Serial Number: 61303726
  • NDBC Property Number: 38752
  • Start Date: 1/30/2015 (12:57:28 Z)
  • End Date: 2/26/2016 (16:48:00 Z)
Relative Humidity [%]     6 entries per hour
Showing data from 10/20/2015 (11:30:00 Z) to 10/19/2015 (00:00:01 Z)
Previous Next [ Day | 3-Days | 7-Days ]
First Last
Prev [ Day | 3-Days | 7-Days ] Next
First Last

Start Time:     :
End Time:     :     
Time (in GMT) :00 :50 :40 :30 :20 :10
Previous Next [ Day | 3-Days | 7-Days ]
First Last
Prev [ Day | 3-Days | 7-Days ] Next
First Last


123 => good data
MM => data is determined as missing
-- => data not received/configured
Back to Top Back to Top
10/20/2015 12:00 to 11:10 -- -- -- 79.06 78.71 78.50
10/20/2015 11:00 to 10:10 78.93 78.71 78.34 79.10 79.49 79.14
10/20/2015 10:00 to 9:10 79.23 78.91 77.76 78.37 79.92 80.21
10/20/2015 09:00 to 8:10 80.92 80.55 79.53 79.92 78.56 78.04
10/20/2015 08:00 to 7:10 77.43 76.72 77.09 77.37 76.07 75.94
10/20/2015 07:00 to 6:10 76.20 75.55 75.55 75.75 76.16 74.47
10/20/2015 06:00 to 5:10 73.93 73.13 73.34 75.75 76.35 76.63
10/20/2015 05:00 to 4:10 76.03 75.59 75.66 75.34 75.08 74.82
10/20/2015 04:00 to 3:10 74.95 74.27 74.77 74.06 74.23 74.10
10/20/2015 03:00 to 2:10 74.45 74.23 73.17 73.32 72.56 72.33
10/20/2015 02:00 to 1:10 72.13 72.74 73.76 73.88 73.37 72.61
10/20/2015 01:00 to 0:10 71.74 72.09 71.94 72.22 73.80 73.76
10/20/2015 00:00 to 23:10 73.37 72.87 71.98 71.92 71.96 71.61
10/19/2015 23:00 to 22:10 72.56 71.92 72.11 72.52 71.61 71.96
10/19/2015 22:00 to 21:10 72.74 74.79 74.51 74.53 74.62 74.51
10/19/2015 21:00 to 20:10 74.08 73.82 73.84 73.93 73.65 74.25
10/19/2015 20:00 to 19:10 73.80 73.65 73.71 74.40 74.95 74.04
10/19/2015 19:00 to 18:10 74.17 73.71 73.65 73.04 72.89 73.19
10/19/2015 18:00 to 17:10 73.63 72.95 72.02 71.81 70.98 69.27
10/19/2015 17:00 to 16:10 70.18 69.97 71.76 72.56 73.65 72.28
10/19/2015 16:00 to 15:10 73.43 74.19 73.56 74.82 74.08 74.30
10/19/2015 15:00 to 14:10 72.65 74.90 75.31 73.63 73.93 74.30
10/19/2015 14:00 to 13:10 75.42 74.77 74.86 75.03 75.83 75.64
10/19/2015 13:00 to 12:10 75.44 75.64 74.79 75.59 74.56 74.32
10/19/2015 12:00 to 11:10 75.36 75.01 75.70 73.21 74.27 74.73
10/19/2015 11:00 to 10:10 75.18 73.41 75.42 75.01 75.05 74.64
10/19/2015 10:00 to 9:10 74.88 75.44 74.97 75.18 74.99 74.84
10/19/2015 09:00 to 8:10 74.36 74.84 74.75 74.19 74.08 72.98
10/19/2015 08:00 to 7:10 72.91 74.56 74.51 74.17 74.49 72.24
10/19/2015 07:00 to 6:10 73.69 73.99 72.91 75.31 76.40 75.96
10/19/2015 06:00 to 5:10 74.40 73.06 73.56 74.06 71.27 71.05
10/19/2015 05:00 to 4:10 69.69 70.38 73.00 73.76 75.64 75.59
10/19/2015 04:00 to 3:10 73.73 73.45 73.04 72.05 72.41 73.54
10/19/2015 03:00 to 2:10 73.04 70.92 70.98 69.97 69.49 71.87
10/19/2015 02:00 to 1:10 72.30 71.96 71.63 71.53 70.08 71.79
10/19/2015 01:00 to 0:10 71.98 71.63 71.70 71.55 71.89 72.76

 

 

 

Air Temperature [°C]     6 entries per hour
Showing data from 10/20/2015 (11:30:00 Z) to 10/19/2015 (00:00:01 Z)
Previous Next [ Day | 3-Days | 7-Days ]
First Last
Prev [ Day | 3-Days | 7-Days ] Next
First Last

Start Time:     :
End Time:     :     
Time (in GMT) :00 :50 :40 :30 :20 :10
Previous Next [ Day | 3-Days | 7-Days ]
First Last
Prev [ Day | 3-Days | 7-Days ] Next
First Last


123 => good data
MM => data is determined as missing
-- => data not received/configured
Back to Top Back to Top
10/20/2015 12:00 to 11:10 -- -- -- 27.94 27.89 27.79
10/20/2015 11:00 to 10:10 27.91 27.84 27.80 27.73 27.88 27.94
10/20/2015 10:00 to 9:10 27.87 27.94 27.90 27.88 27.93 27.91
10/20/2015 09:00 to 8:10 27.87 27.94 28.09 28.11 28.16 28.06
10/20/2015 08:00 to 7:10 28.28 28.19 28.15 28.21 28.19 28.18
10/20/2015 07:00 to 6:10 28.23 28.21 28.26 28.35 28.33 28.28
10/20/2015 06:00 to 5:10 28.46 28.40 28.20 28.26 28.13 28.29
10/20/2015 05:00 to 4:10 28.30 28.13 28.21 28.23 28.19 28.23
10/20/2015 04:00 to 3:10 28.20 28.24 28.22 28.25 28.19 28.24
10/20/2015 03:00 to 2:10 28.23 28.31 28.27 28.31 28.30 28.29
10/20/2015 02:00 to 1:10 28.33 28.31 28.39 28.40 28.43 28.42
10/20/2015 01:00 to 0:10 28.51 28.37 28.46 28.40 28.56 28.55
10/20/2015 00:00 to 23:10 28.49 28.43 28.41 28.43 28.41 28.35
10/19/2015 23:00 to 22:10 28.43 28.53 28.45 28.39 28.56 28.41
10/19/2015 22:00 to 21:10 28.44 28.40 28.20 28.39 28.43 28.25
10/19/2015 21:00 to 20:10 28.26 28.21 28.16 28.20 28.21 28.44
10/19/2015 20:00 to 19:10 28.31 28.28 28.18 28.22 28.35 28.24
10/19/2015 19:00 to 18:10 28.31 28.18 28.35 28.38 28.50 28.13
10/19/2015 18:00 to 17:10 28.13 28.18 28.28 28.26 28.24 28.37
10/19/2015 17:00 to 16:10 28.43 28.30 28.46 28.24 28.36 28.28
10/19/2015 16:00 to 15:10 27.94 28.14 27.93 27.97 27.96 27.94
10/19/2015 15:00 to 14:10 27.91 27.79 27.85 27.84 27.74 27.83
10/19/2015 14:00 to 13:10 27.75 27.72 27.76 27.67 27.72 27.90
10/19/2015 13:00 to 12:10 27.67 27.81 27.71 27.85 27.75 27.75
10/19/2015 12:00 to 11:10 27.80 27.66 27.70 27.79 27.70 27.79
10/19/2015 11:00 to 10:10 27.79 27.78 27.82 27.87 27.88 27.98
10/19/2015 10:00 to 9:10 27.82 27.89 27.84 27.96 28.01 28.05
10/19/2015 09:00 to 8:10 27.94 28.00 27.94 28.08 28.10 28.04
10/19/2015 08:00 to 7:10 28.11 28.14 28.06 28.17 28.14 28.33
10/19/2015 07:00 to 6:10 28.21 28.19 28.18 28.17 28.19 28.23
10/19/2015 06:00 to 5:10 28.23 28.31 28.41 28.33 28.24 28.31
10/19/2015 05:00 to 4:10 28.39 28.26 28.18 28.25 28.26 28.41
10/19/2015 04:00 to 3:10 28.30 28.34 28.48 28.54 28.21 28.41
10/19/2015 03:00 to 2:10 28.51 28.47 28.59 28.76 28.90 28.75
10/19/2015 02:00 to 1:10 28.70 28.91 29.15 29.17 28.99 28.81
10/19/2015 01:00 to 0:10 28.81 28.98 29.01 28.78 28.86 28.83